Hourly Data Report for August 30, 2017

TORONTO CITY
ONTARIO

43°40'00.000" N
79°24'00.000" W
112.50 m
6158355
71508
XTO

Download Data

Hourly Data (August 2017)
Hourly Data Report for August 30, 2017
TIME
LST
Temp Definition
°C
Dew Point Definition
°C
Rel Hum Definition
%
Precip. Amount Definition
mm

Wind Dir Definition
10's deg

Wind Spd Definition
km/h
Visibility Definition
km
Stn Press Definition
kPa
Hmdx Definition


Wind Chill Definition


Weather Definition


00:00 17.4 12.3 72 0.0 LegendMM LegendMM   100.30     LegendNANA
01:00 16.9 12.5 75 0.0 LegendMM LegendMM   100.28     LegendNANA
02:00 15.9 12.3 79 0.0 LegendMM LegendMM   100.26     LegendNANA
03:00 16.1 12.7 80 0.0 LegendMM LegendMM   100.25     LegendNANA
04:00 16.1 12.5 79 0.0 LegendMM LegendMM   100.23     LegendNANA
05:00 15.3 11.8 80 0.0 LegendMM LegendMM   100.23     LegendNANA
06:00 16.0 13.0 82 0.0 LegendMM LegendMM   100.25     LegendNANA
07:00 16.4 12.9 80 0.0 LegendMM LegendMM   100.28     LegendNANA
08:00 18.9 13.6 72 0.0 LegendMM LegendMM   100.31     LegendNANA
09:00 19.3 13.5 69 0.0 LegendMM LegendMM   100.31     LegendNANA
10:00 21.1 14.2 65 0.0 LegendMM LegendMM   100.30 25   LegendNANA
11:00 21.9 13.0 57 0.0 LegendMM LegendMM   100.27 25   LegendNANA
12:00 22.9 13.4 55 0.0 LegendMM LegendMM   100.24 26   LegendNANA
13:00 21.7 11.4 52 0.0 LegendMM LegendMM   100.21     LegendNANA
14:00 21.4 12.8 58 0.0 LegendMM LegendMM   100.17     LegendNANA
15:00 21.9 12.1 54 0.0 LegendMM LegendMM   100.11     LegendNANA
16:00 22.2 12.6 54 0.0 LegendMM LegendMM   100.06 25   LegendNANA
17:00 22.3 13.0 56 0.0 LegendMM LegendMM   100.03 25   LegendNANA
18:00 21.9 13.5 59 0.0 LegendMM LegendMM   100.00 25   LegendNANA
19:00 21.3 14.0 63 0.0 LegendMM LegendMM   100.00 25   LegendNANA
20:00 19.8 14.5 72 0.0 LegendMM LegendMM   99.99     LegendNANA
21:00 19.5 14.5 73 0.0 LegendMM LegendMM   100.01     LegendNANA
22:00 20.2 14.5 70 0.0 LegendMM LegendMM   100.02     LegendNANA
23:00 18.9 14.3 75 0.0 LegendMM LegendMM   100.04     LegendNANA

Notes on Data Quality.

Legend

  • E = Estimated
  • M = Missing
  • NA = Not Available*
  • [empty] = Indicates an unobserved value
Date modified: